This is the latest recevied weather packets stored in our database for station/object K9RCP-20. If no packets are shown the sender has not sent any weather packets the latest 10 day(s).
| Time | Temp. | Humidity | Pressure | Rain* | Wind** | Luminosity | Snow |
|---|---|---|---|---|---|---|---|
| 1778172119 | 13.89° C | 66% | 1018.3 hPa | 0 mm | - | 311 W/m² | - |
| 1778171816 | 13.33° C | 67% | 1018.3 hPa | 0 mm | - | 262 W/m² | - |
| 1778171514 | 13.33° C | 68% | 1018.3 hPa | 0 mm | - | 270 W/m² | - |
| 1778171210 | 13.33° C | 67% | 1018.3 hPa | 0 mm | - | 242 W/m² | - |
| 1778170906 | 12.78° C | 68% | 1018.4 hPa | 0 mm | - | 225 W/m² | - |
| 1778170602 | 12.78° C | 69% | 1018.5 hPa | 0 mm | - | 243 W/m² | - |
| 1778170299 | 13.33° C | 68% | 1018.4 hPa | 0 mm | - | 270 W/m² | - |
| 1778169996 | 13.33° C | 68% | 1018.4 hPa | 0 mm | - | 225 W/m² | - |
| 1778169692 | 13.33° C | 68% | 1018.5 hPa | 0 mm | - | 223 W/m² | - |
| 1778169388 | 12.78° C | 69% | 1018.3 hPa | 0 mm | - | 197 W/m² | - |
| 1778169085 | 12.78° C | 69% | 1018.2 hPa | 0 mm | - | 212 W/m² | - |
| 1778168781 | 12.78° C | 69% | 1018.3 hPa | 0 mm | - | 199 W/m² | - |
| 1778168479 | 12.78° C | 69% | 1018.2 hPa | 0 mm | - | 197 W/m² | - |
| 1778168175 | 12.78° C | 69% | 1018.1 hPa | 0 mm | - | 182 W/m² | - |
| 1778167872 | 12.78° C | 70% | 1018.4 hPa | 0 mm | - | 200 W/m² | - |
| 1778167568 | 12.78° C | 70% | 1018.1 hPa | 0 mm | - | 169 W/m² | - |
| 1778167264 | 12.78° C | 71% | 1018.1 hPa | 0 mm | - | 161 W/m² | - |
| 1778166960 | 12.78° C | 71% | 1018.3 hPa | 0 mm | - | 159 W/m² | - |
| 1778166657 | 12.78° C | 71% | 1018.2 hPa | 0 mm | - | 154 W/m² | - |
| 1778166354 | 12.22° C | 72% | 1018.4 hPa | 0 mm | - | 142 W/m² | - |
| 1778166051 | 12.22° C | 72% | 1018.4 hPa | 0 mm | - | 132 W/m² | - |
| 1778165746 | 11.67° C | 72% | 1018.3 hPa | 0 mm | - | 145 W/m² | - |
| 1778165444 | 12.22° C | 72% | 1018.3 hPa | 0 mm | - | 115 W/m² | - |
| 1778165140 | 12.22° C | 72% | 1018.3 hPa | 0 mm | - | 105 W/m² | - |
| 1778164838 | 11.67° C | 72% | 1018.3 hPa | 0 mm | - | 94 W/m² | - |
* Rain latest hour (hover to see other rain measurements)
** Current wind speed in m/s (hover to see current wind gust speed)